EW8748 Weather Reports


Display with metric or nautical units.
time (UTC)temp
F
wind
direction
speed
MPH
gust
MPH
rain 1hr
in
rain 24hr
in
rain mn
in
humidity
%
barometer
mb
20260503210012 52 291 7.0 10.0 0.00 0.00 0.00 83 1021.1
20260503203019 53 321 4.0 8.0 0.00 0.00 0.00 81 1021.0
20260503202019 53 290 5.0 8.0 0.00 0.00 0.00 80 1021.0
20260503201512 54 310 3.0 8.0 0.00 0.00 0.00 80 1020.9
20260503200514 54 275 5.0 9.0 0.00 0.00 0.00 80 1020.9
20260503200012 54 259 5.0 9.0 0.00 0.00 0.00 79 1020.9
20260503195019 54 300 5.0 8.0 0.00 0.00 0.00 78 1020.8
20260503193019 55 322 5.0 9.0 0.00 0.00 0.00 77 1020.8
20260503191512 55 285 5.0 10.0 0.00 0.00 0.00 76 1020.7
20260503191019 55 274 6.0 10.0 0.00 0.00 0.00 76 1020.7
20260503190012 55 281 6.0 12.0 0.00 0.00 0.00 76 1020.5
20260503185513 55 275 7.0 12.0 0.00 0.00 0.00 75 1020.4
20260503185021 56 299 5.0 9.0 0.00 0.00 0.00 75 1020.5
20260503184021 56 307 6.0 10.0 0.00 0.00 0.00 74 1020.5
20260503182513 56 310 7.0 12.0 0.00 0.00 0.00 74 1020.4
20260503181512 57 289 8.0 13.0 0.00 0.00 0.00 74 1020.2
20260503180012 57 302 7.0 17.0 0.00 0.00 0.00 75 1020.0
20260503175512 57 285 9.0 16.0 0.00 0.00 0.00 75 1020.0
20260503174513 58 302 10.0 15.0 0.00 0.00 0.00 76 1020.0
20260503174019 58 286 6.0 13.0 0.00 0.00 0.00 77 1019.8
20260503173019 58 273 7.0 13.0 0.00 0.00 0.00 76 1019.9
20260503171513 59 268 7.0 12.0 0.00 0.00 0.00 75 1019.7
20260503150512 63 348 7.0 15.0 0.00 0.00 0.00 67 1019.5
20260503130512 63 267 9.0 18.0 0.00 0.00 0.00 62 1020.6
20260503110513 65 237 7.0 12.0 0.00 0.00 0.00 41 1021.1
20260503081019 58 287 7.0 15.0 0.00 0.00 0.00 61 1021.9
20260503080511 58 299 7.0 10.0 0.00 0.00 0.00 64 1022.0
20260503072512 57 299 7.0 13.0 0.00 0.00 0.00 66 1022.2
20260503071511 56 320 7.0 13.0 0.00 0.00 0.00 69 1022.2
20260503070512 55 291 7.0 13.0 0.00 0.00 0.00 70 1022.3
20260503055019 52 296 7.0 12.0 0.00 0.00 0.00 78 1022.2
20260503054511 51 292 4.0 8.0 0.00 0.00 0.00 78 1022.1
20260503053511 51 286 4.0 8.0 0.00 0.00 0.00 79 1022.1
20260503052019 50 287 3.0 7.0 0.00 0.00 0.00 80 1021.9
20260503051512 50 293 5.0 8.0 0.00 0.00 0.00 81 1022.0
20260503045020 48 250 5.0 8.0 0.00 0.00 0.00 82 1021.9
20260503044511 48 308 4.0 8.0 0.00 0.00 0.00 82 1021.9
20260503044020 48 282 4.0 7.0 0.00 0.00 0.00 82 1021.8
20260503042511 48 313 3.0 5.0 0.00 0.00 0.00 82 1021.8
20260503042019 48 289 3.0 7.0 0.00 0.00 0.00 82 1021.7
20260503041511 48 284 4.0 7.0 0.00 0.00 0.00 82 1021.7
20260503040511 48 297 3.0 8.0 0.00 0.00 0.00 82 1021.7
20260503035511 47 283 3.0 5.0 0.00 0.00 0.00 82 1021.7
20260503035019 47 276 3.0 5.0 0.00 0.00 0.00 82 1021.6
20260503034020 48 261 3.0 5.0 0.00 0.00 0.00 82 1021.5
20260503033018 48 309 2.0 5.0 0.00 0.00 0.00 82 1021.6
20260503030511 47 324 3.0 5.0 0.00 0.00 0.00 82 1021.8
20260503025511 47 329 4.0 6.0 0.00 0.00 0.00 83 1021.7
20260503024512 47 311 5.0 8.0 0.00 0.00 0.00 82 1021.8
20260503024018 47 359 5.0 8.0 0.00 0.00 0.00 82 1021.7
20260503023019 48 299 2.0 5.0 0.00 0.00 0.00 82 1021.7
20260503021511 48 321 5.0 6.0 0.00 0.00 0.00 82 1021.8
20260503021019 48 310 3.0 5.0 0.00 0.00 0.00 82 1021.8
20260503020511 48 285 2.0 5.0 0.00 0.00 0.00 81 1021.8
20260503020011 48 359 3.0 6.0 0.00 0.00 0.00 81 1021.9
20260503013510 48 313 5.0 8.0 0.00 0.00 0.00 80 1022.1
20260503013017 48 324 3.0 5.0 0.00 0.00 0.00 80 1022.1
20260503011511 49 337 3.0 5.0 0.00 0.00 0.00 79 1022.2
20260503010511 49 321 4.0 6.0 0.00 0.00 0.00 80 1022.3
20260503010011 48 359 4.0 6.0 0.00 0.00 0.00 80 1022.3
20260503005511 48 339 4.0 8.0 0.00 0.00 0.00 80 1022.3
20260503005018 48 337 2.0 6.0 0.00 0.00 0.00 80 1022.4
20260503004511 48 322 4.0 7.0 0.00 0.00 0.00 79 1022.4
20260503002511 49 324 3.0 5.0 0.00 0.00 0.00 78 1022.5
20260503002017 49 309 5.0 6.0 0.00 0.00 0.00 78 1022.6
20260502235515 49 316 5.0 6.0 0.00 0.00 0.00 78 1022.7
20260502235019 49 297 3.0 6.0 0.00 0.00 0.00 78 1022.7
20260502234514 48 319 3.0 5.0 0.00 0.00 0.00 78 1022.8
20260502230513 49 309 3.0 5.0 0.00 0.00 0.00 77 1023.1
20260502225513 49 318 4.0 6.0 0.00 0.00 0.00 77 1023.0
20260502225019 49 318 3.0 5.0 0.00 0.00 0.00 77 1023.0
20260502223020 49 308 3.0 5.0 0.00 0.00 0.00 77 1023.1
20260502222513 49 339 3.0 5.0 0.00 0.00 0.00 77 1023.1
20260502222021 49 334 4.0 6.0 0.00 0.00 0.00 76 1023.2
20260502221019 49 343 3.0 5.0 0.00 0.00 0.00 76 1023.0
20260502220014 50 337 2.0 3.0 0.00 0.00 0.00 75 1022.8
20260502215019 50 312 2.0 3.0 0.00 0.00 0.00 75 1022.9
20260502214513 50 335 3.0 5.0 0.00 0.00 0.00 75 1023.0
20260502214021 50 328 3.0 5.0 0.00 0.00 0.00 74 1022.8
20260502213020 51 326 3.0 5.0 0.00 0.00 0.00 73 1022.9
20260502212019 51 343 3.0 3.0 0.00 0.00 0.00 73 1022.9
20260502211020 51 345 1.0 2.0 0.00 0.00 0.00 73 1023.0